Regional Weather Roundup
Issued by NWS Kansas City/Pleasant Hill, MO

Home | Current Version | Previous Version | Graphics & Text | Print | Product List | Glossary Off
Versions: 1 2 3 4 5 6 7 8 9 10 11 12 13 14 15 16 17 18 19 20 21 22 23 24 25 26 27 28

000
ASUS43 KEAX 250710
RWREAX

WEATHER ROUNDUP FOR EASTERN KANSAS AND NORTHWEST MISSOURI
NATIONAL WEATHER SERVICE KANSAS CITY/PLEASANT HILL MO
200 AM CDT WED APR 25 2018

KSZ040-057-103>105-MOZ028-029-037-043-250800-
...KANSAS CITY METROPOLITAN AREA...

CITY           SKY/WX    TMP DP  RH WIND       PRES   REMARKS
K.C. INTL      CLOUDY    56  45  66 N14       30.10F
K.C. DOWNTOWN  CLOUDY    60  45  57 N9        30.09F
LEES SUMMIT    CLOUDY    59  47  64 N10       30.09F
OLATHE - IXD   CLOUDY    58  47  66 NW10      30.13R
OLATHE - OJC   CLOUDY    58  46  64 N10       30.11S
LAWRENCE       CLOUDY    56  48  74 W10       30.13R

$$

MOZ001>008-011>017-020>025-030>033-038>040-044>046-053-054-250800-
...NORTHERN AND CENTRAL MISSOURI...

CITY           SKY/WX    TMP DP  RH WIND       PRES   REMARKS
ST. JOSEPH     CLOUDY    55  45  68 N15       30.13F
MOSBY          CLOUDY    59  45  58 N9        30.10S
WARRENSBURG    CLOUDY    57  45  62 NW5       30.08S
WHITEMAN AFB   NOT AVBL
CLINTON        CLOUDY    57  46  67 N3        30.08F
SEDALIA        CLEAR     57  46  66 NW5       30.07S
WARSAW         NOT AVBL
CHILLICOTHE      N/A     60  46  59 N8G18     30.10F
KIRKSVILLE     MOCLDY    58  46  64 N14       30.08F

$$

MOZ041-047>049-056>058-063>065-088>090-097-250800-
...EASTERN AND SOUTHERN MISSOURI...

CITY           SKY/WX    TMP DP  RH WIND       PRES   REMARKS
ST. LOUIS INTL PTCLDY    51  42  71 W7        29.98F
SPIRIT OF STL  CLEAR     45  43  93 W3        29.98F
COLUMBIA       CLOUDY    58  37  45 N10       30.04S
JEFFERSON CITY CLEAR     53  41  63 W7        30.03F
ROLLA          PTCLDY    52  40  63 W5        30.04S
OSAGE BEACH    CLEAR     56  40  55 NW5       30.05F
SPRINGFIELD    CLOUDY    52  41  66 NW8       30.06S
BRANSON        CLEAR     59  37  44 CALM      30.07F
JOPLIN         CLEAR     56  46  69 N7        30.09S
WEST PLAINS    CLEAR     51  45  79 CALM      30.04F

$$

IAZ060-094-KSZ022-034>040-054-083-096-NEZ052-066-093-250800-
...KANSAS...SOUTHEAST NEBRASKA AND IOWA...

CITY           SKY/WX    TMP DP  RH WIND       PRES   REMARKS
TOPEKA         CLOUDY    54  50  86 NW8       30.15S
MANHATTAN      LGT RAIN  50  47  89 VRB3      30.19F
EMPORIA        CLOUDY    51  46  83 NW13      30.16F
CHANUTE        CLOUDY    55  48  77 NW12      30.12S
WICHITA        LGT RAIN  48  47  96 NW22      30.21R
OMAHA          CLOUDY    48  45  89 N15       30.23R
LINCOLN        LGT RAIN  46  45  96 N17       30.25R FOG
FALLS CITY     CLOUDY    53  44  71 N9        30.16R
LAMONI         CLOUDY    52  42  69 N15G23    30.14R
DES MOINES     CLOUDY    53  42  66 N13       30.18R

$$





USA.gov is the U.S. government's official web portal to all federal, state and local government web resources and services.